User: anonymous   Login
Location: Prairie State College
(41.5244°N, 87.6382°W)
Time: 22:12:18
(UTC-06:00)
Language:

MSX - Orbit

View from above orbital plane
View from above orbital plane
View from above satellite
View from above satellite

Ground track
Ground track

The orbit data is extracted from the following two-line orbital elements,

1 23851U 96024A   15022.82429693 0.00000150  00000-0  10578-3 0    06
2 23851  98.7466  63.7186 0007000 255.7543 104.2456 13.98000462    05
Epoch (UTC): 22 January 2015 19:46:59
Eccentricity: 0.0007000
inclination: 98.7466°
perigee height: 895 km
apogee height: 906 km
right ascension of ascending node: 63.7186°
argument of perigee: 255.7543°
revolutions per day: 13.98000462
mean anomaly at epoch: 104.2456°
orbit number at epoch: 0

The dashed part of the orbit path shows where the satellite is in the earth's shadow,  

DLR